Location: Newark
(46.9000°N, 28.3500°E)
Time: 09:56:36
(UTC+00:00)

Vanguard 1 Rocket - Pass Details

Date: 25 August 2019
Orbit: 652 x 4225 km, 34.3° (Epoch: 15 September)

Event Time Altitude Azimuth Distance (km) Brightness Sun altitude
Rises 01:47:13 0° 244° (WSW) 2,982 - -14.5°
Reaches altitude 10° 01:49:42 10° 228° (SW) 2,169 - -14.2°
Exits shadow 01:51:18 17° 210° (SSW) 1,814 8.4 -13.9°
Maximum altitude 01:53:28 23° 176° (S) 1,724 8.6 -13.6°
Drops below altitude 10° 01:58:29 10° 126° (SE) 2,979 10.3 -12.9°
Sets 02:02:39 0° 114° (ESE) 4,473 11.5 -12.3°
